Location: Lane
(33.5226°N, 79.8788°W)
Time: 04:57:27
(UTC+00:00)

Vanguard 2 - Pass Details

Date: 08 October 2022
Orbit: 553 x 2933 km, 32.9° (Epoch: 26 November)

Event Time Altitude Azimuth Distance (km) Brightness Sun altitude
Rises 22:33:43 0° 284° (WNW) 5,788 13.5 3.5°
Reaches altitude 10° 22:37:21 10° 278° (W) 5,042 13.4 2.7°
Maximum altitude 22:51:52 47° 212° (SSW) 3,505 11.3 -0.3°
Drops below altitude 10° 23:08:15 10° 145° (SE) 5,598 11.6 -3.7°
Sets 23:12:35 0° 140° (SE) 6,446 11.9 -4.6°
